Flag for U.S.A. Weather past 2 weeks in Toccoa, Georgia, U.S.A.

Now
46 °F

Fog.


Feels Like: 46 °F
Forecast: 49 / 70 °F
Wind: No wind

Location: Clemson-Oconee County Airport

Current Time: Mar 3, 2015 at 7:31:43 PM

Latest Report: Mar 3, 2015 at 6:54 PM


Visibility: 2 mi

Pressure: 30.16 "Hg

Humidity: 86%

Dew point: 42 °F

Location of ToccoaLocation

Historic Weather in Toccoa — Graph

°F

Toccoa temperature yesterday

Maximum temperature yesterday: 77 °F (at 2:54 PM)
Minimum temperature yesterday: 44 °F (at 1:54 AM)
Average temperature yesterday: 59 °F

Past Weeks' High & Low Weather Summary

 TemperatureHumidityPressure
High77 °F (Mar 2, 2:54 PM)90% (Feb 23, 1:54 AM)30.69 "Hg (Feb 23, 1:54 AM)
Low14 °F (Feb 20, 2:54 AM)20% (Feb 19, 12:54 PM)29.70 "Hg (Feb 26, 2:54 AM)
Average40 °F64%30.19 "Hg
* Reported Feb 16 6:54 PM — Mar 3 6:03 PM, Toccoa, Weather by CustomWeather, © 2015

Note: Actual official high and low records may vary slightly from our data, if they occured in-between our weather recording intervals... More about our weather records

Advertising

Toccoa weather history for previous 24 hours

 ConditionsComfort  
Time TempWeatherWind HumidityBarometerVisibility
6:03 PM
Tue, Mar 3
46 °FFog.No wind86%30.15 "Hg2 mi
4:54 PM47 °FLight rain. Fog.No wind86%30.16 "Hg1 mi
3:54 PM47 °FLow clouds.5 mph83%30.18 "Hg5 mi
2:54 PM47 °FMostly cloudy.6 mph83%30.19 "Hg6 mi
1:54 PM47 °FMostly cloudy.6 mph83%30.22 "Hg2 mi
12:54 PM46 °FLow clouds.5 mph83%30.25 "Hg2 mi
12:02 PM47 °FOvercast.7 mph74%30.29 "Hg4 mi
11:54 AM48 °FOvercast.7 mph71%30.28 "Hg7 mi
10:54 AM47 °FLight rain. Overcast.7 mph69%30.30 "Hg5 mi
9:54 AM46 °FOvercast.10 mph73%30.30 "Hg10 mi
8:54 AM47 °FLight rain. Overcast.8 mph64%30.30 "Hg4 mi
7:54 AM49 °FOvercast.14 mph57%30.28 "Hg10 mi
6:54 AM49 °FOvercast.6 mph57%30.27 "Hg10 mi
5:54 AM49 °FOvercast.12 mph57%30.25 "Hg10 mi
4:54 AM52 °FOvercast.7 mph49%30.24 "Hg10 mi
3:54 AM54 °FOvercast.8 mph45%30.23 "Hg10 mi
2:54 AM56 °FOvercast.10 mph40%30.23 "Hg10 mi
1:54 AM56 °FOvercast.14 mph49%30.23 "Hg10 mi
12:54 AM57 °FMostly cloudy.9 mph46%30.24 "Hg10 mi
11:54 PM
Mon, Mar 2
57 °FMostly cloudy.8 mph49%30.23 "Hg10 mi
10:54 PM58 °FPassing clouds.7 mph54%30.25 "Hg10 mi
9:54 PM60 °FOvercast.3 mph53%30.25 "Hg10 mi
8:54 PM61 °FPassing clouds.3 mph58%30.23 "Hg10 mi
7:54 PM65 °FPassing clouds.No wind47%30.22 "Hg10 mi
Weather by CustomWeather, © 2015

See weather overviewHow to use our weather pages